Retour au catalogue

PRAETORIAN SDA_615

ActifMilitairePO
NORAD 65578·PAYLOAD·🇺🇸 United States

Lancé Sep 10, 2025 depuis Vandenberg Space Force Base

Loading…

Prochains Passages (prochaines 24 heures)

TLE

FraisSource: Space-Track

Époque: Sep 14, 2026, 13:20 UTC

1 65578U 25203P   26257.55575534  .00000116  00000-0  92845-4 0  9994
2 65578  81.2995 287.7595 0008107 313.2701  46.7779 13.84442276 51077

Suivez PRAETORIAN SDA_615 en temps réel avec AllMySat

Download on the App Store